QPF
0.00 0.00 0.00 0.00 0.00 0.00 0.00 0.00 0.04 0.03 0.01 0.00 0.00 0.00 0.00 0.00 0.00 0.00 0.00 0.00 0.00 0.00 0.00 0.00 0.00 0.00 0.00 0.00 0.00 0.00 0.00 0.00 0.00 0.00 0.00 0.01 0.01 0.01 0.02 0.02 0.02 0.01 0.02 0.02
0.00 0.00 0.00 0.00 0.00 0.00 0.00 0.01 0.01 0.01 0.01 0.00 0.00 0.00 0.00 0.00 0.00 0.00 0.00 0.00 0.00 0.00 0.00 0.00 0.00 0.00 0.00 0.00 0.00 0.00 0.00 0.00 0.00 0.00 0.00 0.00 0.01 0.01 0.02 0.02 0.02 0.02 0.01 0.02
0.00 0.00 0.00 0.01 0.00 0.00 0.00 0.00 0.00 0.01 0.01 0.00 0.01 0.01 0.01 0.01 0.01 0.01 0.00 0.00 0.00 0.01 0.01 0.01 0.01 0.01 0.01 0.01 0.01 0.01 0.00 0.00 0.00 0.00 0.00 0.00 0.01 0.02 0.02 0.03 0.03 0.03 0.03 0.03
0.00 0.00 0.01 0.01 0.00 0.00 0.00 0.00 0.00 0.00 0.01 0.01 0.02 0.02 0.02 0.02 0.01 0.01 0.01 0.00 0.01 0.01 0.00 0.00 0.00 0.00 0.00 0.00 0.00 0.00 0.00 0.00 0.00 0.00 0.00 0.01 0.01 0.02 0.04 0.05 0.06 0.06 0.06 0.05
0.00 0.00 0.01 0.00 0.00 0.00 0.00 0.01 0.01 0.01 0.01 0.01 0.01 0.01 0.00 0.00 0.00 0.00 0.00 0.00 0.00 0.00 0.00 0.00 0.00 0.00 0.00 0.00 0.00 0.00 0.00 0.00 0.00 0.00 0.00 0.01 0.02 0.03 0.05 0.07 0.08 0.10 0.10 0.10
0.00 0.00 0.01 0.00 0.00 0.00 0.01 0.03 0.02 0.01 0.00 0.00 0.00 0.00 0.00 0.00 0.00 0.00 0.00 0.00 0.00 0.00 0.00 0.00 0.00 0.00 0.00 0.00 0.00 0.00 0.00 0.00 0.00 0.00 0.01 0.01 0.02 0.04 0.07 0.09 0.11 0.12 0.13 0.13
0.00 0.00 0.00 0.00 0.00 0.00 0.01 0.01 0.00 0.00 0.00 0.00 0.00 0.00 0.00 0.00 0.00 0.00 0.00 0.00 0.00 0.00 0.00 0.00 0.00 0.00 0.00 0.01 0.01 0.00 0.00 0.01 0.01 0.01 0.01 0.01 0.02 0.04 0.07 0.11 0.14 0.15 0.15 0.15
0.00 0.01 0.01 0.00 0.00 0.00 0.00 0.00 0.00 0.00 0.00 0.00 0.00 0.00 0.00 0.00 0.00 0.00 0.00 0.00 0.00 0.00 0.00 0.00 0.00 0.01 0.01 0.01 0.01 0.01 0.01 0.01 0.01 0.01 0.01 0.01 0.03 0.04 0.08 0.14 0.20 0.22 0.22 0.21
0.00 0.01 0.00 0.00 0.00 0.00 0.00 0.00 0.00 0.00 0.00 0.00 0.00 0.00 0.00 0.00 0.00 0.00 0.00 0.00 0.00 0.00 0.00 0.00 0.00 0.01 0.01 0.01 0.01 0.02 0.02 0.02 0.01 0.02 0.02 0.02 0.03 0.05 0.08 0.14 0.23 0.28 0.29 0.26
0.00 0.00 0.00 0.00 0.00 0.00 0.00 0.00 0.00 0.00 0.00 0.00 0.00 0.00 0.00 0.00 0.00 0.00 0.00 0.00 0.00 0.00 0.00 0.00 0.00 0.01 0.01 0.01 0.01 0.02 0.03 0.02 0.02 0.02 0.02 0.03 0.05 0.06 0.10 0.15 0.23 0.27 0.31 0.29
0.00 0.00 0.00 0.00 0.00 0.00 0.00 0.00 0.00 0.00 0.00 0.00 0.00 0.00 0.00 0.00 0.00 0.00 0.00 0.00 0.00 0.00 0.01 0.00 0.00 0.00 0.00 0.01 0.02 0.03 0.03 0.03 0.03 0.03 0.03 0.04 0.05 0.06 0.09 0.15 0.21 0.25 0.27 0.29
0.00 0.00 0.00 0.00 0.00 0.00 0.00 0.00 0.00 0.00 0.00 0.00 0.00 0.00 0.00 0.00 0.00 0.00 0.00 0.00 0.00 0.00 0.00 0.00 0.00 0.00 0.00 0.01 0.02 0.03 0.04 0.03 0.04 0.04 0.06 0.07 0.07 0.07 0.08 0.12 0.16 0.20 0.25 0.27
0.00 0.00 0.00 0.00 0.00 0.00 0.00 0.00 0.00 0.00 0.00 0.00 0.00 0.00 0.00 0.00 0.00 0.00 0.00 0.00 0.00 0.00 0.00 0.00 0.00 0.01 0.01 0.02 0.02 0.04 0.05 0.05 0.05 0.06 0.07 0.08 0.09 0.09 0.12 0.15 0.18 0.19 0.23 0.25
0.00 0.00 0.00 0.00 0.00 0.00 0.00 0.00 0.00 0.00 0.00 0.00 0.00 0.00 0.00 0.00 0.00 0.00 0.00 0.00 0.00 0.00 0.00 0.01 0.01 0.02 0.02 0.03 0.04 0.05 0.06 0.07 0.07 0.08 0.08 0.09 0.12 0.12 0.14 0.19 0.22 0.22 0.24 0.25
0.00 0.00 0.00 0.00 0.00 0.00 0.00 0.00 0.00 0.00 0.00 0.00 0.00 0.00 0.00 0.00 0.00 0.00 0.00 0.00 0.01 0.01 0.01 0.01 0.02 0.03 0.04 0.04 0.05 0.06 0.07 0.08 0.07 0.07 0.08 0.10 0.13 0.14 0.16 0.22 0.24 0.23 0.22 0.23
0.00 0.00 0.00 0.00 0.00 0.00 0.00 0.00 0.00 0.00 0.00 0.00 0.00 0.00 0.00 0.00 0.00 0.00 0.00 0.00 0.02 0.02 0.01 0.02 0.03 0.04 0.05 0.05 0.05 0.06 0.07 0.06 0.07 0.08 0.09 0.11 0.14 0.15 0.17 0.23 0.27 0.25 0.20 0.18
0.00 0.00 0.00 0.00 0.00 0.00 0.00 0.00 0.00 0.00 0.00 0.00 0.00 0.00 0.00 0.00 0.00 0.01 0.01 0.01 0.02 0.02 0.02 0.04 0.05 0.05 0.06 0.05 0.06 0.07 0.07 0.06 0.06 0.08 0.09 0.10 0.13 0.15 0.18 0.22 0.25 0.24 0.17 0.14
0.00 0.00 0.00 0.00 0.00 0.00 0.00 0.00 0.00 0.00 0.00 0.00 0.00 0.00 0.00 0.01 0.01 0.02 0.02 0.02 0.02 0.02 0.03 0.05 0.06 0.06 0.06 0.05 0.07 0.07 0.06 0.06 0.08 0.10 0.11 0.10 0.12 0.15 0.18 0.20 0.22 0.20 0.16 0.15
0.00 0.00 0.00 0.00 0.00 0.00 0.00 0.00 0.00 0.00 0.00 0.00 0.00 0.00 0.01 0.01 0.02 0.03 0.03 0.04 0.05 0.05 0.05 0.06 0.09 0.08 0.06 0.06 0.07 0.07 0.06 0.06 0.08 0.11 0.13 0.11 0.11 0.15 0.17 0.17 0.19 0.17 0.14 0.12
0.00 0.00 0.00 0.00 0.00 0.00 0.00 0.00 0.00 0.00 0.00 0.00 0.01 0.01 0.02 0.03 0.04 0.04 0.04 0.05 0.06 0.07 0.08 0.09 0.09 0.09 0.08 0.06 0.06 0.05 0.05 0.05 0.07 0.09 0.11 0.13 0.15 0.15 0.15 0.14 0.15 0.14 0.11 0.08
0.00 0.00 0.00 0.00 0.00 0.00 0.00 0.00 0.00 0.00 0.00 0.00 0.01 0.02 0.03 0.04 0.05 0.05 0.06 0.08 0.08 0.08 0.08 0.10 0.10 0.09 0.06 0.04 0.04 0.04 0.03 0.04 0.06 0.08 0.12 0.16 0.16 0.15 0.12 0.10 0.11 0.10 0.08 0.06
0.00 0.00 0.00 0.00 0.00 0.00 0.00 0.00 0.00 0.00 0.00 0.01 0.01 0.02 0.05 0.06 0.06 0.06 0.07 0.09 0.10 0.08 0.08 0.09 0.09 0.07 0.04 0.03 0.03 0.03 0.03 0.04 0.06 0.09 0.13 0.15 0.15 0.14 0.09 0.07 0.08 0.07 0.05 0.05
0.00 0.00 0.00 0.00 0.00 0.00 0.00 0.00 0.00 0.00 0.01 0.01 0.02 0.05 0.08 0.08 0.08 0.09 0.10 0.08 0.09 0.08 0.08 0.07 0.06 0.04 0.03 0.02 0.02 0.02 0.03 0.05 0.06 0.09 0.11 0.13 0.14 0.10 0.06 0.06 0.07 0.05 0.04 0.03
0.00 0.00 0.00 0.00 0.00 0.00 0.00 0.00 0.00 0.00 0.01 0.01 0.02 0.05 0.09 0.10 0.08 0.08 0.09 0.10 0.11 0.09 0.09 0.07 0.04 0.02 0.02 0.02 0.03 0.04 0.05 0.06 0.07 0.08 0.09 0.11 0.11 0.08 0.06 0.06 0.05 0.03 0.02 0.02
0.00 0.00 0.00 0.00 0.00 0.00 0.00 0.00 0.00 0.00 0.01 0.01 0.02 0.04 0.08 0.10 0.10 0.09 0.08 0.09 0.12 0.09 0.08 0.08 0.06 0.04 0.03 0.04 0.05 0.06 0.05 0.05 0.06 0.07 0.07 0.08 0.08 0.08 0.07 0.06 0.04 0.02 0.02 0.01
0.00 0.00 0.00 0.00 0.00 0.00 0.00 0.00 0.00 0.01 0.02 0.02 0.03 0.05 0.07 0.08 0.09 0.09 0.08 0.09 0.10 0.09 0.08 0.07 0.07 0.06 0.05 0.05 0.06 0.05 0.04 0.05 0.06 0.07 0.06 0.06 0.07 0.07 0.07 0.05 0.03 0.02 0.01 0.01
0.00 0.00 0.00 0.00 0.00 0.00 0.00 0.00 0.00 0.01 0.02 0.03 0.05 0.06 0.07 0.08 0.08 0.08 0.08 0.08 0.08 0.07 0.07 0.07 0.06 0.05 0.05 0.06 0.06 0.06 0.05 0.06 0.05 0.04 0.04 0.05 0.07 0.06 0.05 0.04 0.02 0.01 0.00 0.01
MSLP
1012.18 1012.29 1012.48 1012.76 1013.12 1013.53 1013.98 1014.43 1014.86 1015.24 1015.57 1015.83 1016.03 1016.17 1016.26 1016.31 1016.30 1016.25 1016.15 1015.99 1015.78 1015.52 1015.23 1014.90 1014.55 1014.20 1013.85 1013.48 1013.11 1012.71 1012.27 1011.78 1011.23 1010.64 1010.00 1009.35 1008.71 1008.10 1007.56 1007.09 1006.70 1006.39 1006.13 1005.92
1012.58 1012.77 1013.04 1013.38 1013.77 1014.21 1014.65 1015.09 1015.48 1015.81 1016.07 1016.25 1016.36 1016.41 1016.39 1016.33 1016.22 1016.07 1015.87 1015.64 1015.36 1015.06 1014.72 1014.36 1014.00 1013.62 1013.25 1012.88 1012.49 1012.09 1011.65 1011.18 1010.68 1010.13 1009.56 1008.98 1008.42 1007.88 1007.40 1006.99 1006.64 1006.34 1006.11 1005.90
1013.13 1013.41 1013.75 1014.14 1014.57 1015.00 1015.42 1015.80 1016.12 1016.36 1016.51 1016.58 1016.57 1016.49 1016.35 1016.16 1015.94 1015.68 1015.40 1015.08 1014.75 1014.38 1014.01 1013.62 1013.22 1012.82 1012.43 1012.04 1011.64 1011.25 1010.83 1010.40 1009.95 1009.48 1008.99 1008.51 1008.04 1007.59 1007.18 1006.82 1006.51 1006.25 1006.03 1005.84
1013.81 1014.16 1014.56 1014.98 1015.41 1015.81 1016.17 1016.47 1016.68 1016.79 1016.81 1016.74 1016.58 1016.37 1016.10 1015.79 1015.46 1015.12 1014.75 1014.37 1013.98 1013.57 1013.15 1012.72 1012.30 1011.87 1011.45 1011.04 1010.65 1010.26 1009.87 1009.49 1009.10 1008.70 1008.31 1007.92 1007.54 1007.17 1006.83 1006.52 1006.24 1006.00 1005.79 1005.61
1014.55 1014.95 1015.37 1015.79 1016.18 1016.52 1016.79 1016.97 1017.05 1017.02 1016.89 1016.68 1016.38 1016.04 1015.65 1015.25 1014.83 1014.41 1013.99 1013.56 1013.12 1012.68 1012.22 1011.76 1011.30 1010.85 1010.41 1009.99 1009.59 1009.21 1008.85 1008.51 1008.19 1007.86 1007.55 1007.24 1006.93 1006.62 1006.32 1006.04 1005.78 1005.54 1005.33 1005.17
1015.29 1015.70 1016.10 1016.48 1016.80 1017.05 1017.20 1017.25 1017.18 1017.01 1016.74 1016.38 1015.97 1015.51 1015.04 1014.56 1014.09 1013.62 1013.15 1012.69 1012.22 1011.75 1011.27 1010.78 1010.30 1009.83 1009.37 1008.94 1008.54 1008.18 1007.85 1007.55 1007.28 1007.02 1006.76 1006.50 1006.24 1005.96 1005.69 1005.41 1005.14 1004.90 1004.69 1004.53
1015.95 1016.33 1016.68 1016.98 1017.21 1017.34 1017.36 1017.26 1017.06 1016.74 1016.34 1015.88 1015.37 1014.84 1014.30 1013.78 1013.27 1012.77 1012.28 1011.80 1011.31 1010.82 1010.32 1009.82 1009.32 1008.84 1008.37 1007.95 1007.56 1007.22 1006.92 1006.66 1006.43 1006.20 1005.98 1005.76 1005.51 1005.25 1004.97 1004.69 1004.41 1004.15 1003.94 1003.79
1016.48 1016.79 1017.06 1017.26 1017.37 1017.37 1017.25 1017.03 1016.69 1016.26 1015.76 1015.21 1014.64 1014.06 1013.49 1012.94 1012.41 1011.90 1011.40 1010.91 1010.41 1009.90 1009.39 1008.88 1008.37 1007.89 1007.43 1007.02 1006.66 1006.34 1006.08 1005.85 1005.64 1005.45 1005.26 1005.04 1004.80 1004.54 1004.25 1003.95 1003.65 1003.39 1003.18 1003.05
1016.84 1017.07 1017.23 1017.32 1017.30 1017.17 1016.93 1016.58 1016.13 1015.62 1015.04 1014.44 1013.83 1013.23 1012.65 1012.09 1011.56 1011.04 1010.53 1010.02 1009.51 1008.99 1008.46 1007.94 1007.44 1006.96 1006.53 1006.14 1005.81 1005.53 1005.30 1005.10 1004.92 1004.75 1004.57 1004.36 1004.12 1003.85 1003.55 1003.25 1002.95 1002.70 1002.51 1002.41
1017.02 1017.16 1017.22 1017.18 1017.04 1016.79 1016.44 1015.99 1015.46 1014.88 1014.26 1013.63 1013.01 1012.40 1011.82 1011.26 1010.73 1010.20 1009.67 1009.15 1008.61 1008.07 1007.54 1007.01 1006.51 1006.05 1005.64 1005.29 1004.99 1004.75 1004.55 1004.38 1004.23 1004.07 1003.89 1003.68 1003.44 1003.17 1002.89 1002.60 1002.34 1002.12 1001.97 1001.92
1017.05 1017.10 1017.05 1016.90 1016.65 1016.29 1015.84 1015.32 1014.73 1014.11 1013.47 1012.83 1012.21 1011.61 1011.03 1010.47 1009.93 1009.38 1008.83 1008.28 1007.72 1007.15 1006.60 1006.07 1005.58 1005.14 1004.75 1004.43 1004.17 1003.96 1003.79 1003.64 1003.50 1003.35 1003.17 1002.97 1002.73 1002.48 1002.22 1001.98 1001.77 1001.62 1001.55 1001.57
1016.95 1016.91 1016.76 1016.52 1016.17 1015.73 1015.21 1014.63 1014.00 1013.36 1012.72 1012.09 1011.47 1010.88 1010.30 1009.74 1009.17 1008.60 1008.02 1007.43 1006.83 1006.24 1005.67 1005.13 1004.64 1004.21 1003.85 1003.56 1003.32 1003.13 1002.98 1002.83 1002.69 1002.53 1002.34 1002.14 1001.92 1001.70 1001.48 1001.31 1001.18 1001.13 1001.16 1001.28
1016.76 1016.63 1016.41 1016.08 1015.66 1015.15 1014.58 1013.96 1013.31 1012.66 1012.02 1011.40 1010.80 1010.21 1009.63 1009.05 1008.46 1007.86 1007.23 1006.60 1005.97 1005.34 1004.75 1004.21 1003.72 1003.30 1002.95 1002.67 1002.45 1002.26 1002.09 1001.93 1001.76 1001.58 1001.38 1001.17 1000.96 1000.76 1000.61 1000.52 1000.49 1000.55 1000.70 1000.94
1016.50 1016.31 1016.02 1015.62 1015.14 1014.58 1013.97 1013.33 1012.68 1012.03 1011.39 1010.78 1010.18 1009.60 1009.01 1008.41 1007.79 1007.15 1006.49 1005.81 1005.14 1004.49 1003.88 1003.32 1002.84 1002.42 1002.07 1001.79 1001.56 1001.35 1001.15 1000.95 1000.74 1000.51 1000.27 1000.04 999.83 999.67 999.57 999.56 999.64 999.83 1000.10 1000.46
1016.21 1015.96 1015.61 1015.16 1014.63 1014.04 1013.40 1012.75 1012.09 1011.45 1010.83 1010.22 1009.63 1009.04 1008.44 1007.81 1007.16 1006.49 1005.78 1005.07 1004.37 1003.69 1003.07 1002.50 1002.01 1001.59 1001.23 1000.94 1000.67 1000.43 1000.18 999.92 999.64 999.35 999.06 998.79 998.58 998.43 998.39 998.45 998.63 998.93 999.33 999.80
1015.90 1015.61 1015.21 1014.72 1014.15 1013.53 1012.88 1012.21 1011.56 1010.92 1010.31 1009.71 1009.12 1008.52 1007.90 1007.25 1006.57 1005.85 1005.12 1004.37 1003.65 1002.95 1002.31 1001.74 1001.24 1000.81 1000.44 1000.12 999.82 999.52 999.21 998.88 998.53 998.17 997.82 997.51 997.28 997.14 997.13 997.25 997.52 997.91 998.41 998.99
1015.60 1015.26 1014.82 1014.29 1013.70 1013.05 1012.39 1011.73 1011.08 1010.45 1009.83 1009.23 1008.64 1008.02 1007.38 1006.71 1005.99 1005.25 1004.48 1003.71 1002.96 1002.26 1001.61 1001.03 1000.53 1000.09 999.71 999.36 999.02 998.67 998.30 997.90 997.48 997.05 996.65 996.30 996.04 995.90 995.91 996.08 996.40 996.87 997.45 998.11
1015.31 1014.93 1014.45 1013.90 1013.28 1012.63 1011.96 1011.29 1010.64 1010.01 1009.40 1008.80 1008.18 1007.55 1006.88 1006.18 1005.43 1004.65 1003.86 1003.07 1002.30 1001.59 1000.94 1000.36 999.85 999.41 999.02 998.65 998.28 997.89 997.47 997.02 996.55 996.08 995.63 995.25 994.98 994.84 994.86 995.06 995.42 995.93 996.56 997.27
1015.04 1014.63 1014.12 1013.54 1012.91 1012.25 1011.58 1010.91 1010.26 1009.63 1009.01 1008.39 1007.76 1007.10 1006.40 1005.66 1004.88 1004.07 1003.25 1002.44 1001.66 1000.94 1000.28 999.70 999.20 998.76 998.36 997.99 997.60 997.20 996.76 996.29 995.79 995.30 994.84 994.46 994.18 994.05 994.09 994.30 994.68 995.21 995.86 996.59
1014.79 1014.35 1013.83 1013.23 1012.59 1011.92 1011.25 1010.58 1009.93 1009.29 1008.66 1008.02 1007.36 1006.67 1005.93 1005.16 1004.34 1003.50 1002.65 1001.81 1001.02 1000.29 999.64 999.07 998.57 998.13 997.74 997.37 996.99 996.59 996.16 995.70 995.21 994.73 994.29 993.93 993.68 993.57 993.62 993.85 994.24 994.77 995.42 996.14
1014.56 1014.10 1013.56 1012.96 1012.31 1011.64 1010.97 1010.30 1009.65 1009.00 1008.35 1007.69 1007.00 1006.27 1005.49 1004.68 1003.82 1002.94 1002.07 1001.22 1000.41 999.68 999.02 998.45 997.96 997.53 997.16 996.80 996.44 996.06 995.66 995.23 994.79 994.36 993.97 993.65 993.45 993.38 993.46 993.70 994.09 994.61 995.23 995.92
1014.33 1013.86 1013.31 1012.71 1012.06 1011.39 1010.72 1010.06 1009.40 1008.74 1008.07 1007.39 1006.67 1005.90 1005.09 1004.24 1003.35 1002.44 1001.54 1000.67 999.86 999.11 998.46 997.89 997.40 996.99 996.62 996.28 995.95 995.61 995.25 994.88 994.50 994.13 993.81 993.57 993.42 993.40 993.52 993.78 994.17 994.67 995.26 995.91
1014.10 1013.62 1013.07 1012.47 1011.83 1011.17 1010.50 1009.84 1009.18 1008.51 1007.83 1007.13 1006.38 1005.59 1004.74 1003.86 1002.94 1002.02 1001.10 1000.21 999.39 998.64 997.98 997.41 996.93 996.52 996.17 995.85 995.54 995.24 994.93 994.61 994.30 994.01 993.77 993.60 993.52 993.56 993.72 994.00 994.39 994.87 995.43 996.02
1013.84 1013.37 1012.82 1012.23 1011.60 1010.95 1010.30 1009.65 1008.99 1008.32 1007.63 1006.91 1006.15 1005.34 1004.47 1003.57 1002.64 1001.70 1000.77 999.88 999.05 998.31 997.65 997.08 996.59 996.18 995.84 995.53 995.24 994.96 994.69 994.43 994.18 993.96 993.79 993.69 993.69 993.78 993.98 994.28 994.67 995.14 995.66 996.20
1013.57 1013.11 1012.57 1011.99 1011.38 1010.76 1010.12 1009.49 1008.84 1008.18 1007.49 1006.77 1006.00 1005.18 1004.31 1003.40 1002.46 1001.52 1000.60 999.71 998.89 998.15 997.49 996.92 996.43 996.02 995.67 995.36 995.08 994.82 994.58 994.35 994.15 993.98 993.88 993.84 993.88 994.02 994.26 994.58 994.98 995.43 995.92 996.43
1013.32 1012.86 1012.34 1011.78 1011.20 1010.60 1009.99 1009.38 1008.75 1008.11 1007.43 1006.72 1005.95 1005.14 1004.28 1003.37 1002.45 1001.52 1000.61 999.74 998.93 998.20 997.55 996.98 996.49 996.07 995.71 995.40 995.12 994.86 994.63 994.42 994.25 994.12 994.05 994.06 994.15 994.32 994.58 994.92 995.32 995.77 996.24 996.72
1013.10 1012.66 1012.16 1011.63 1011.08 1010.51 1009.94 1009.36 1008.77 1008.15 1007.49 1006.80 1006.05 1005.26 1004.41 1003.53 1002.63 1001.72 1000.84 999.99 999.20 998.48 997.84 997.28 996.80 996.37 996.01 995.69 995.40 995.14 994.91 994.71 994.55 994.45 994.40 994.43 994.54 994.74 995.02 995.37 995.78 996.22 996.69 997.15
Thickness
5741 5744 5738 5728 5722 5719 5712 5707 5697 5696 5687 5672 5661 5654 5649 5644 5639 5636 5632 5629 5625 5622 5621 5619 5618 5616 5614 5613 5613 5612 5612 5612 5613 5616 5618 5622 5626 5631 5636 5640 5645 5649 5651 5654
5732 5737 5730 5715 5708 5704 5696 5691 5687 5679 5666 5657 5650 5643 5634 5628 5623 5620 5618 5616 5613 5611 5608 5606 5603 5601 5599 5597 5595 5594 5594 5595 5597 5598 5601 5605 5609 5614 5619 5624 5629 5634 5638 5642
5726 5728 5718 5700 5685 5683 5680 5676 5670 5661 5650 5644 5636 5629 5623 5618 5614 5611 5608 5604 5600 5597 5593 5590 5587 5584 5581 5579 5577 5576 5575 5576 5577 5579 5581 5585 5590 5594 5599 5605 5612 5618 5624 5629
5721 5714 5694 5675 5680 5673 5666 5662 5657 5647 5639 5632 5625 5622 5618 5614 5608 5601 5595 5590 5585 5580 5576 5572 5569 5565 5561 5559 5556 5555 5554 5555 5556 5558 5560 5564 5568 5573 5579 5587 5593 5601 5609 5615
5710 5703 5684 5668 5664 5657 5648 5649 5647 5635 5630 5626 5622 5615 5616 5611 5597 5586 5579 5572 5566 5561 5556 5551 5547 5543 5540 5537 5536 5535 5534 5535 5536 5537 5539 5542 5547 5553 5560 5567 5575 5584 5593 5601
5699 5685 5678 5654 5655 5652 5641 5636 5634 5626 5618 5611 5605 5597 5598 5590 5578 5570 5562 5554 5548 5542 5538 5533 5529 5525 5522 5521 5520 5519 5520 5520 5520 5521 5522 5526 5530 5536 5542 5549 5558 5568 5578 5587
5685 5677 5663 5652 5651 5646 5630 5626 5621 5613 5605 5597 5589 5582 5579 5572 5563 5553 5545 5538 5533 5529 5525 5521 5517 5514 5512 5511 5510 5510 5511 5511 5511 5512 5513 5517 5521 5525 5530 5536 5544 5553 5564 5574
5673 5662 5649 5648 5643 5630 5621 5617 5609 5602 5595 5587 5579 5572 5564 5555 5547 5539 5533 5528 5524 5520 5518 5515 5512 5509 5507 5506 5506 5506 5507 5507 5507 5508 5509 5513 5516 5519 5523 5527 5534 5543 5553 5564
5660 5654 5646 5642 5631 5624 5616 5606 5599 5592 5584 5575 5567 5559 5551 5543 5536 5530 5525 5522 5519 5517 5516 5514 5511 5508 5506 5506 5505 5504 5504 5504 5505 5506 5507 5508 5511 5515 5519 5523 5529 5538 5545 5553
5651 5649 5642 5634 5627 5618 5608 5597 5590 5581 5573 5563 5554 5547 5540 5534 5529 5524 5521 5518 5517 5515 5514 5513 5511 5509 5507 5506 5504 5503 5502 5502 5502 5504 5505 5507 5509 5513 5517 5522 5526 5533 5539 5546
5643 5640 5632 5628 5617 5607 5598 5590 5581 5573 5562 5552 5544 5538 5532 5527 5524 5521 5519 5517 5514 5512 5512 5511 5510 5509 5507 5505 5503 5502 5501 5500 5500 5501 5502 5504 5507 5510 5514 5518 5522 5526 5534 5542
5634 5628 5618 5613 5608 5599 5590 5582 5573 5563 5554 5545 5536 5530 5527 5524 5522 5519 5517 5515 5513 5511 5510 5510 5509 5507 5505 5503 5501 5499 5497 5497 5497 5497 5498 5500 5503 5507 5510 5512 5516 5518 5524 5532
5630 5623 5615 5608 5601 5594 5583 5573 5564 5555 5546 5539 5533 5527 5523 5521 5519 5517 5514 5512 5511 5509 5508 5507 5506 5504 5503 5500 5497 5495 5493 5492 5491 5492 5493 5495 5498 5502 5506 5511 5513 5517 5522 5528
5624 5615 5607 5601 5594 5586 5576 5567 5559 5550 5541 5534 5528 5524 5520 5518 5516 5513 5511 5509 5508 5506 5504 5502 5501 5500 5497 5494 5492 5491 5489 5489 5488 5488 5488 5490 5494 5498 5502 5509 5517 5525 5526 5529
5619 5610 5602 5595 5588 5580 5570 5561 5553 5545 5537 5531 5525 5520 5516 5513 5511 5509 5507 5504 5502 5500 5498 5497 5495 5493 5490 5489 5488 5486 5485 5485 5486 5485 5486 5488 5492 5496 5501 5509 5517 5524 5530 5532
5613 5605 5598 5589 5580 5572 5563 5554 5545 5539 5532 5526 5521 5516 5512 5508 5506 5504 5502 5498 5495 5494 5492 5490 5489 5488 5486 5485 5484 5483 5483 5483 5483 5484 5487 5491 5495 5499 5505 5512 5519 5525 5532 5536
5603 5597 5589 5581 5573 5565 5556 5546 5538 5532 5526 5521 5517 5513 5509 5506 5503 5500 5497 5493 5490 5488 5487 5486 5486 5486 5484 5482 5481 5482 5482 5484 5484 5486 5490 5494 5500 5504 5510 5516 5523 5529 5537 5542
5599 5591 5583 5574 5566 5558 5550 5542 5534 5527 5521 5517 5514 5510 5506 5501 5498 5494 5492 5489 5487 5487 5487 5486 5485 5484 5483 5482 5481 5482 5483 5486 5488 5492 5496 5501 5507 5512 5517 5523 5530 5537 5543 5545
5595 5587 5579 5570 5560 5551 5544 5536 5529 5523 5518 5514 5510 5506 5502 5497 5493 5490 5488 5487 5486 5487 5488 5486 5483 5482 5484 5484 5482 5484 5488 5491 5494 5499 5504 5508 5514 5520 5526 5532 5538 5546 5550 5553
5590 5582 5575 5566 5557 5547 5538 5532 5525 5519 5515 5511 5507 5504 5500 5496 5492 5490 5488 5487 5487 5486 5485 5484 5485 5486 5486 5487 5486 5490 5494 5497 5501 5507 5512 5519 5524 5529 5535 5542 5548 5553 5557 5561
5585 5578 5570 5562 5553 5543 5535 5527 5521 5517 5513 5509 5505 5501 5497 5495 5493 5490 5489 5490 5490 5487 5486 5485 5487 5488 5490 5490 5490 5496 5500 5505 5510 5515 5520 5526 5532 5538 5545 5552 5557 5561 5565 5569
5580 5573 5565 5557 5548 5541 5532 5525 5520 5516 5512 5508 5504 5500 5497 5495 5494 5492 5491 5489 5490 5487 5487 5490 5491 5491 5492 5493 5500 5505 5509 5514 5519 5523 5528 5534 5541 5549 5555 5561 5565 5569 5573 5577
5576 5568 5560 5553 5545 5537 5531 5525 5520 5514 5510 5505 5502 5499 5495 5493 5492 5492 5494 5494 5492 5490 5491 5495 5494 5494 5495 5505 5512 5516 5520 5523 5528 5532 5538 5544 5552 5559 5565 5569 5573 5577 5580 5583
5571 5564 5557 5550 5542 5536 5531 5525 5518 5513 5509 5505 5501 5498 5495 5495 5496 5495 5495 5496 5496 5495 5500 5500 5498 5501 5504 5516 5522 5526 5530 5534 5538 5543 5549 5556 5563 5569 5574 5577 5581 5584 5586 5588
5567 5560 5555 5547 5541 5536 5529 5524 5519 5514 5510 5506 5503 5500 5498 5497 5496 5498 5500 5502 5503 5504 5509 5510 5510 5512 5520 5527 5532 5536 5540 5544 5549 5554 5560 5568 5574 5578 5583 5585 5587 5589 5591 5593
5564 5559 5552 5544 5538 5532 5527 5520 5516 5512 5509 5506 5503 5502 5501 5500 5501 5502 5504 5507 5510 5510 5514 5518 5521 5524 5530 5535 5539 5543 5548 5553 5559 5566 5572 5577 5582 5586 5589 5591 5593 5595 5595 5597
5564 5559 5552 5546 5539 5530 5522 5516 5513 5510 5508 5503 5501 5502 5502 5502 5504 5505 5508 5511 5514 5516 5519 5523 5527 5531 5535 5541 5546 5551 5557 5563 5569 5574 5579 5584 5587 5590 5592 5595 5596 5597 5598 5598